Preview of NWS' New Version of Forecast
This preview is not operational and should not be used for support decisions.
Latest weather observations around

Parsons, Tri-City Airport (KPPF)

Using English Units (Switch to International System of Units)
Date/ Time (CDT) Wind (mph) Vis. (mi) Weather Sky Cond. Temp (°F) Rel. Humidity Wind Chill (°F) Heat Index (°F) Pressure Precip. (in)
Air Dwpt 6 hour Altimeter (inHg) Sea level (inHg) 1 hr 3 hr 6 hr
Max Min
Jun 24 10:52 WNW 8 10 Clear CLR 73 60     64%   73 29.93 29.9      
Jun 24 09:52 NW 11 10 Clear CLR 70 59     68%     29.9 29.88      
Jun 24 08:52 NNW 11 10 Clear CLR 68 60     76%     29.89 29.87      
Jun 24 07:52 NNW 11 10 Mostly Cloudy SCT010 BKN050 BKN070 66 63     90%     29.86 29.84      
Jun 24 07:28 NNW 13 10 Cloudy BKN011 OVC038 68 66     93%     29.85        
Jun 24 06:52 NNW 7 10 Mostly Cloudy BKN033 BKN041 68 67     96%     29.83 29.81      
Jun 24 06:44 NW 5 10 Cloudy BKN030 BKN038 OVC044 68 67     96%     29.83        
Jun 24 05:59 WNW 5 10 Cloudy SCT011 BKN017 OVC024 69 68     96%     29.82        
Jun 24 05:52 W 6 10 Cloudy BKN012 OVC016 69 68     96%     29.82 29.79      
Jun 24 05:49 W 5 10 Cloudy OVC012 70 68     94%     29.82        
Jun 24 04:52 W 5 10 Cloudy OVC008 67 67     100%     29.79 29.77      
Jun 24 04:50 WNW 5 9 Cloudy OVC008 66 66     100%     29.8        
Jun 24 04:37 W 3 7 Mostly Cloudy BKN010 65 65     100%     29.79        
Jun 24 04:04 NNW 6 4 Fog/Mist CLR 64 64     100%     29.78        
Jun 24 03:52 Calm 2 Fog/Mist CLR 66 65     96%     29.78 29.76      
Jun 24 02:52 SW 3 9 Clear CLR 67 67     100%     29.78 29.76      
Jun 24 01:52 S 3 10 Clear CLR 68 67     96%     29.81 29.78      
Jun 24 00:52 SSE 6 10 Clear CLR 68 68     100%     29.8 29.78      
Jun 23 23:52 SSW 3 10 Clear CLR 69 68     96%     29.83 29.81      
Jun 23 22:52 Calm 10 Clear CLR 69 68     96%     29.82 29.8      
Jun 23 21:52 Calm 8 Clear CLR 68 68     100%     29.79 29.77      
Jun 23 20:52 Calm 10 Clear CLR 69 68     96%     29.77 29.75      
Jun 23 19:52 Calm 10 Clear CLR 70 69     97%     29.77 29.75      
Jun 23 19:12 Calm 10 Partly Cloudy SCT025 71 69     93%   72 29.78        
Jun 23 18:52 Calm 10 Cloudy OVC027 72 68     87%   73 29.76 29.74      
Jun 23 17:52 NW 6 10 Cloudy FEW014 OVC025 72 68     87%   73 29.76 29.73      
Jun 23 16:52 W 6 10 Cloudy BKN020 OVC028 73 68     84%   74 29.78 29.76      
Jun 23 15:52 W 10 10 Mostly Cloudy BKN015 BKN021 74 68     82%   75 29.81 29.79      
Jun 23 15:28 WSW 9 10 Mostly Cloudy BKN013 72 68     87%   73 29.8        
Jun 23 15:16 WSW 13 10 Partly Cloudy SCT011 72 67     84%   73 29.8        
Jun 23 14:52 WSW 11 10 Mostly Cloudy BKN011 71 67     87%   72 29.8 29.77      
Jun 23 13:52 SW 8 10 Mostly Cloudy BKN010 69 66     90%     29.8 29.77      
Jun 23 12:52 SSE 5 10 Clear CLR 66 65     96%     29.76 29.74     0
Jun 23 11:52 Calm 10 Clear CLR 66 65     96%     29.8 29.78      
Jun 23 10:52 5 10 Mostly Cloudy FEW037 SCT100 BKN120 65 64     97%     29.82 29.8 0    
Jun 23 09:52 6 10 Light Rain FEW040 FEW095 BKN120 65 64     97%     29.8 29.78 0 0  
Jun 23 08:52 Calm 10 Light Rain FEW060 BKN120 66 65     96%     29.89 29.86 0    
Jun 23 08:11 6 10 Light Rain SCT009 SCT022 BKN120 66 65     96%     29.83   0    
Jun 23 08:05   10 Light Rain SCT009 BKN013 OVC120 66 65     96%     29.83   0    
Jun 23 07:52 5 6 Rain and Fog/Mist BKN011 BKN020 OVC041 66 65     96%     29.84 29.81 0    
Jun 23 07:48 3 6 Thunderstorms and Rain and Fog/Mist SCT009 BKN012 OVC038 66 64     94%     29.85   0    
Jun 23 07:36 NNW 5 3 Thunderstorms and Heavy Rain and Fog/Mist SCT010 SCT019 OVC034 66 65     96%     29.84   0    
Jun 23 07:29 NW 7 2 Heavy Rain and Fog/Mist FEW010 BKN038 OVC070 66 65     96%     29.86   0    
Jun 23 07:24 NNW 16 1.25 Heavy Rain and Fog/Mist FEW014 BKN033 OVC110 66 65     96%     29.85   0    
Jun 23 07:18 NNW 11 1 Heavy Rain and Fog/Mist FEW009 BKN028 OVC110 66 65     96%     29.86   0    
Jun 23 07:15   1.25 Heavy Rain and Fog/Mist FEW009 BKN032 OVC110 67 65     93%     29.87   0    
Jun 23 07:13   1.75 Heavy Rain and Fog/Mist FEW010 BKN043 OVC110 67 66     97%     29.88   0    
Jun 23 06:52 SE 9 8 Light Rain BKN046 BKN060 OVC110 67 66     97%     29.79 29.75 0   0
Jun 23 06:47 SE 10 8 Light Rain BKN046 OVC060 66 66     100%     29.79   0    
Jun 23 06:11 6 6 Light Rain and Fog/Mist SCT041 BKN060 OVC100 67 65     93%     29.79   0    
Jun 23 05:52 ESE 9 6 Light Rain and Fog/Mist FEW009 BKN044 OVC075 67 66     97%     29.8 29.77 0    
Jun 23 05:05 7 10 Clear   67 66     97%     29.83        
Jun 23 04:52 7 10 Clear   67 66     97%     29.83 29.8      
Jun 23 04:38 7 10 Cloudy BKN009 BKN040 OVC048 67 66     97%     29.83        
Jun 23 04:30 7 10 Cloudy SCT009 BKN040 OVC048 67 66     97%     29.84        
Jun 23 04:23 ESE 8 10 Cloudy BKN008 BKN040 OVC048 67 66     97%     29.84        
Jun 23 04:03 E 8 10 Cloudy FEW008 BKN048 OVC060 68 66     93%     29.84        
Jun 23 03:52 ESE 8 10 Mostly Cloudy BKN050 BKN060 68 66     93%     29.84 29.81 0 0  
Jun 23 03:09 E 8 7 Light Rain FEW009 BKN043 OVC070 67 66     97%     29.86   0    
Jun 23 02:55   2.5 Heavy Rain and Fog/Mist FEW007 BKN037 OVC046 68 67     96%     29.86   0    
Jun 23 02:52 7 4 Heavy Rain and Fog/Mist FEW007 BKN034 OVC045 68 67     96%     29.87 29.84 0    
Jun 23 02:49 E 8 7 Light Rain SCT007 BKN042 OVC049 68 66     94%     29.87   0    
Jun 23 02:31 7 9 Light Rain BKN007 BKN035 OVC044 68 67     96%     29.89   0    
Jun 23 02:05 6 7 Thunderstorms and Heavy Rain BKN007 OVC033 69 68     96%     29.9   0    
Jun 23 01:52 7 10 Thunderstorms FEW008 OVC034 69 67     93%     29.9 29.87 0    
Jun 23 01:49 E 8 10 Cloudy OVC034 70 66     88%     29.91   0    
Jun 23 01:18 5 7 Light Rain BKN039 OVC046 68 66     93%     29.93   0    
Jun 23 01:03 NE 6 10 Thunderstorms and Rain BKN039 OVC046 69 66     90%     29.95   0    
Jun 23 00:52 6 10 Cloudy OVC041 69 66     90%     29.95 29.92     0
Jun 22 23:52 NNE 11 10 Cloudy FEW036 BKN080 OVC110 70 66     87%     29.93 29.9      
Jun 22 23:03   10 Cloudy FEW035 SCT044 OVC110 75 71     88%   76 29.94        
Jun 22 22:52 WSW 5 10 Thunderstorms FEW100 BKN120 76 72     88%   77 29.92 29.88 0    
Jun 22 22:48 W 5 10 Thunderstorms FEW100 BKN120 75 72     89%   77 29.91   0    
Jun 22 22:41 SW 6 10 Mostly Cloudy FEW070 BKN110 76 72     88%   77 29.91   0    
Jun 22 21:52 S 6 10 Mostly Clear FEW110 76 73     91%   77 29.85 29.81 0 0  
Jun 22 21:40 S 8 10 Partly Cloudy FEW070 SCT110 77 74     90%   79 29.83   0    
Jun 22 21:12 S 8 9 Light Rain SCT043 SCT070 BKN090 78 75     90%   80 29.81   0    
Jun 22 20:52 SSW 9 5 Thunderstorms and Rain and Fog/Mist FEW028 BKN039 BKN110 78 75     90%   80 29.82 29.8 0    
Jun 22 20:33 S 15 10 Thunderstorms SCT029 SCT037 84 74     72%   91 29.82        
Jun 22 19:52 S 8 10 Partly Cloudy FEW033 SCT055 85 76     75%   94 29.8 29.77      
Jun 22 18:52 S 9 10 Mostly Clear FEW028 87 77     72%   99 29.79 29.75      
Jun 22 17:52 S 13 10 Partly Cloudy FEW037 FEW050 SCT075 85 76     75%   94 29.83 29.79      
Jun 22 16:52 S 10 10 Partly Cloudy FEW046 SCT070 86 77     75%   97 29.85 29.82      
Jun 22 15:52 SSE 7 10 Mostly Cloudy FEW025 SCT033 BKN040 85 78     80%   97 29.86 29.83      
Jun 22 14:52 S 10 10 Cloudy FEW028 BKN035 OVC048 85 77     77%   95 29.87 29.83      
Jun 22 13:52 S 10 10 Cloudy FEW023 SCT029 OVC037 84 76     77%   93 29.88 29.85      
Jun 22 13:22 S 10 10 Cloudy BKN027 OVC038 84 76     77%   93 29.89        
Jun 22 12:52 S 11 10 Cloudy FEW024 OVC030 85 76     75%   94 29.89 29.85     0
Jun 22 12:36 S 8 10 Cloudy BKN027 OVC036 85 76     75%   94 29.89        
Jun 22 12:23 SSW 11 10 Cloudy FEW024 OVC033 84 76     77%   93 29.89        
Jun 22 11:52 S 13 10 Mostly Cloudy BKN029 86 77     75%   97 29.88 29.84      
Jun 22 10:52 S 11 10 Mostly Cloudy FEW020 BKN025 85 76     75%   94 29.88 29.84      
Jun 22 09:52 S 6 10 Mostly Cloudy SCT016 BKN024 82 76     82%   89 29.89 29.85   0  
Jun 22 09:44 S 6 10 Partly Cloudy FEW016 SCT027 80 76     87%   85 29.89        
Jun 22 08:52 Calm 10 Cloudy BKN019 OVC026 74 71     91%   75 29.89 29.85      
Jun 22 08:24 ESE 5 10 Mostly Cloudy BKN026 BKN032 72 68     87%   73 29.89        
Jun 22 07:52 SE 3 10 Mostly Cloudy BKN034 BKN050 72 69     91%   73 29.87 29.84 0    
Jun 22 06:52 N 6 6 Light Rain and Fog/Mist SCT021 OVC030 70 67     90%     29.89 29.86 0   0
Jun 22 06:07 Calm 10 Cloudy BKN028 BKN035 OVC045 79 76     90%   83 29.86        
Jun 22 05:52 Calm 10 Cloudy FEW026 BKN033 OVC047 79 75     88%   83 29.85 29.82      
Jun 22 05:40 Calm 10 Cloudy BKN033 BKN041 OVC049 79 75     88%   83 29.84        
Jun 22 04:52 Calm 10 Cloudy OVC028 79 75     88%   83 29.83 29.79      
Jun 22 03:52 Calm 10 Cloudy OVC028 80 75     85%   85 29.81 29.78      
Jun 22 03:26 S 5 10 Mostly Cloudy BKN027 80 75     85%   85 29.79        
Jun 22 02:52 S 7 10 Clear CLR 80 75     85%   85 29.78 29.74      
Jun 22 01:52 S 6 10 Clear CLR 81 75     82%   87 29.79 29.75      
Jun 22 00:52 S 9 10 Clear CLR 82 75     79%   89 29.79 29.75      
Jun 21 23:52 S 9 10 Clear CLR 82 75     79%   89 29.78 29.74      
Jun 21 22:52 S 8 10 Clear CLR 83 75     77%   90 29.77 29.73      
Jun 21 21:52 S 9 10 Clear CLR 83 76     79%   91 29.75 29.72      
Jun 21 20:52 S 11 10 Clear CLR 85 75     72%   93 29.73 29.69      
Jun 21 19:52 S 14 10 Clear CLR 88 75     66%   98 29.71 29.67      
Jun 21 18:52 S 11 10 Clear CLR 89 76     65%   100 29.71 29.67      
Jun 21 17:52 S 13 10 Mostly Clear FEW040 91 77     64%   105 29.71 29.67      
Jun 21 16:52 S 13 10 Mostly Clear FEW043 91 77     64%   105 29.7 29.67      
Jun 21 15:52 S 10 10 Clear CLR 91 78     66%   106 29.71 29.67      
Jun 21 14:52 S 10 10 Mostly Clear FEW047 91 78     66%   106 29.72 29.68      
Jun 21 13:52 S 11 10 Mostly Cloudy BKN039 BKN048 89 78     70%   103 29.73 29.69      
Jun 21 12:52 S 13 10 Clear CLR 88 77     70%   100 29.73 29.69      
Jun 21 11:52 S 17 10 Mostly Clear FEW025 87 77     72%   99 29.72 29.68      
May 15 13:52 SW 8 10 Cloudy BKN033 OVC042 78 68     71%   79 29.98 29.96      
May 15 03:52   10 Clear   64 62     93%     29.94 29.91 0 0  
May 14 23:34 NNE 10 7 Light Rain SCT020 OVC060 65 63     93%     29.96   1    
May 14 23:12   1.25 Heavy Rain and Fog/Mist BKN020 OVC049 62 61     96%     30.01   0    
May 14 05:52 S 7 10 Clear CLR 72 66     82%   73 29.92 29.89      
May 14 01:52 S 3 10 Clear CLR 72 65     79%   73 29.96 29.92      
May 13 15:52 S 10 10 Mostly Clear FEW045 89 69     52%   94 29.93 29.9      
May 12 07:52 S 9 10 Clear CLR 73 65     76%   74 29.88 29.85      
May 11 20:52 S 15 10 Clear CLR 78 63     60%   78 29.79 29.76      
Jun 11 14:52 S 15 10 Mostly Clear FEW044 88 68     52%   92 29.88 29.85      
Jun 11 13:52 S 17 10 Clear CLR 88 68     52%   92 29.89 29.85      
Jun 10 17:52 S 13 10 Clear   85 68     57%   88 29.79 29.76      
Jun 10 14:52 S 17 10 Mostly Cloudy BKN037 86 68     55%   89 29.83 29.79      
Jun 09 16:52 S 8 10 Clear CLR 83 59     44%   83 29.87 29.85      
Jun 07 23:52 Calm 10 Clear CLR 59 55     87%     30.06 30.04      
Jun 07 22:52 Calm 10 Clear CLR 59 55     87%     30.06 30.04      
Jun 07 14:52 E 8 10 Clear CLR 81 49     33%   80 30.07 30.04      
Jun 06 12:52 NE 8 10 Clear CLR 85 60     43%   85 29.98 29.95